• Join FlightAware (Why Join?)
  • Login
  • US Flag 
07:37PM EST


 

Airport Tracker/Info


-or-


 

Live Flight TrackerFlight Track Log ✈ KAP5 ✈ 01-Jul-2013 ✈ KALB - KBOS

Flight Track Log - Related Links

Times and Time Zones

All times are in EDT time to prevent confusion due to time zone crossing. See the KAP5 flight status page for this flight to view local times or setup timezone preferences in your user account.

Time Position Orientation Groundspeed Altitude Reporting Facility
EDT Latitude Longitude Course Direction KTS MPH feet Rate Location/Type
07:15PM 42.7842 -73.7981 13° North 127 146 1,700  Level Boston Center
07:16PM 42.7847 -73.7528 89° East 130 150 2,800 1,140 Climbing Boston Center
07:17PM 42.7831 -73.7047 93° East 130 150 4,100 1,260 Climbing Boston Center
07:18PM 42.7856 -73.6594 86° East 124 143 5,400 1,260 Climbing Boston Center
07:19PM 42.7861 -73.6114 89° East 122 140 6,700 960 Climbing Boston Center
07:20PM 42.7847 -73.5631 92° East 130 150 7,400 600 Climbing Boston Center
07:21PM 42.7808 -73.5150 96° East 131 151 8,000 600 Climbing Boston Center
07:22PM 42.7794 -73.4583 92° East 137 158 8,700 480 Climbing Boston Center
07:23PM 42.7778 -73.3961 92° East 147 169 9,100 180 Climbing Boston Center
07:24PM 42.7719 -73.3367 98° East 179 206 9,100  Level Boston Center
07:25PM 42.7639 -73.2914 104° East 186 214 9,100  Level Boston Center
07:26PM 42.7519 -73.2317 105° East 179 206 9,100  Level Boston Center
07:27PM 42.7400 -73.1581 102° East 185 213 9,100  Level Boston Center
07:28PM 42.7297 -73.0986 103° East 180 207 9,100  Level Boston Center
07:29PM 42.7156 -73.0278 105° East 180 207 9,100  Level Boston Center
07:30PM 42.7078 -72.9628 99° East 180 207 9,100  Level Boston Center
07:31PM 42.7017 -72.8950 97° East 180 207 9,100  Level Boston Center
07:32PM 42.6853 -72.8300 109° East 180 207 9,100  Level Boston Center
07:33PM 42.6731 -72.7619 104° East 180 207 9,100  Level Boston Center
07:34PM 42.6586 -72.6969 107° East 180 207 9,100  Level Boston Center
07:35PM 42.6483 -72.6264 101° East 180 207 9,100  Level Boston Center
07:36PM 42.6339 -72.5614 107° East 180 207 9,100  Level Boston Center
07:37PM 42.6233 -72.4908 101° East 180 207 9,100  Level Boston Center
07:38PM 42.6108 -72.4258 105° East 180 207 9,100 -60 Level Boston Center
07:39PM 42.6256 -72.3583 73° East 180 207 9,000  Descending Boston Center
07:40PM 42.6442 -72.2906 70° East 180 207 9,100  Climbing Boston Center
07:41PM 42.6336 -72.2256 102° East 186 214 9,100  Level Boston Center
07:42PM 42.6147 -72.1581 111° Southeast 182 209 9,100 -60 Level Boston Center
07:43PM 42.6000 -72.0961 108° East 187 215 9,000  Descending Boston Center
07:44PM 42.5831 -72.0256 108° East 187 215 9,100  Climbing Boston Center
07:45PM 42.5808 -71.9636 93° East 180 207 9,000  Descending Boston Center
07:46PM 42.5700 -71.8875 101° East 180 207 9,100  Climbing Boston Center
07:47PM 42.5675 -71.8228 93° East 180 207 9,100  Level Boston Center
07:48PM 42.5631 -71.7439 94° East 180 207 9,100 -300 Level Boston Center
07:49PM 42.5606 -71.6789 93° East 180 207 8,600 -600 Descending Boston Center
07:50PM 42.5578 -71.5917 92° East 199 229 8,000 -600 Descending Boston Center
07:51PM 42.5550 -71.5214 93° East 199 229 7,400 -660 Descending Boston Center
07:52PM 42.5522 -71.4339 92° East 205 236 6,700 -660 Descending Boston Center
07:53PM 42.5475 -71.3608 95° East 205 236 6,100 -780 Descending Boston Center
07:54PM 42.5444 -71.2761 93° East 205 236 5,200 -1,020 Descending Boston Center
07:55PM 42.5417 -71.1944 93° East 211 243 4,100 -960 Descending Boston Center
07:56PM 42.5386 -71.1158 93° East 216 249 3,200 -480 Descending Boston Center
07:57PM 42.5333 -71.0167 94° East 184 212 3,000 -480 Descending KA90
07:58PM 42.5000 -70.9667 132° Southeast 192 221 2,200 -840 Descending KA90
07:59PM 42.4500 -70.9667 180° South 178 205 1,400 -840 Descending KA90
08:00PM 42.4000 -70.9833 194° South 169 194 600 -840 Descending KA90
08:02PM 42.3630 -71.0064 205° Southwest  Level Estimated
08:09PM 42.3630 -71.0064 48° Northeast  Level Estimated